When you browse on this site, cookies collect data to enhance your experience and personalize the content and advertising you see.
Visit our Privacy Policy to learn more. By continuing to use the site, you agree to this use of cookies and data.
  • In Austria
  • List of Countries
  • For 7 days
  • Water Temperature
  • Satellite Maps
  • Weather Map
  • News
  • Weather Widgets
  • user-avatar
    Login

    Hourly Weather Santiago del Estero

    Today, 27 June, Thursday

    Time Temperature Precipitation Wind Pressure Humidity
    00:00 +8°C° 0 mm 5 mps 740 mmHg 45%
    01:00 +8°C° 0 mm 4 mps 739 mmHg 46%
    02:00 +8°C° 0 mm 4 mps 739 mmHg 48%
    03:00 +7°C° 0 mm 4 mps 738 mmHg 49%
    04:00 +7°C° 0 mm 4 mps 738 mmHg 50%
    05:00 +7°C° 0 mm 3 mps 737 mmHg 52%
    06:00 +7°C° 0 mm 4 mps 738 mmHg 52%
    07:00 +7°C° 0 mm 4 mps 738 mmHg 52%
    08:00 +7°C° 0 mm 4 mps 738 mmHg 52%
    09:00 +10°C° 0 mm 5 mps 738 mmHg 48%
    10:00 +13°C° 0 mm 6 mps 738 mmHg 45%
    11:00 +15°C° 0 mm 7 mps 738 mmHg 41%
    12:00 +17°C° 0 mm 7 mps 737 mmHg 39%
    13:00 +19°C° 0 mm 6 mps 736 mmHg 38%
    14:00 +21°C° 0 mm 6 mps 735 mmHg 36%
    15:00 +20°C° 0 mm 5 mps 735 mmHg 39%
    16:00 +20°C° 0 mm 4 mps 734 mmHg 42%
    17:00 +20°C° 0 mm 3 mps 734 mmHg 45%
    18:00 +18°C° 0 mm 3 mps 735 mmHg 50%
    19:00 +17°C° 0 mm 3 mps 735 mmHg 56%
    20:00 +16°C° 0 mm 3 mps 735 mmHg 61%
    21:00 +14°C° 0 mm 3 mps 735 mmHg 66%
    22:00 +13°C° 0 mm 3 mps 735 mmHg 70%
    23:00 +13°C° 0 mm 3 mps 735 mmHg 74%

    Tomorrow, 28 June, Friday

    Time Temperature Precipitation Wind Pressure Humidity
    00:00 +13°C° 0 mm 2 mps 735 mmHg 78%
    01:00 +13°C° 0 mm 2 mps 735 mmHg 81%
    02:00 +12°C° 0 mm 2 mps 734 mmHg 85%
    03:00 +12°C° 0 mm 2 mps 734 mmHg 86%
    04:00 +12°C° 0 mm 2 mps 734 mmHg 86%
    05:00 +10°C° 0 mm 2 mps 734 mmHg 87%
    06:00 +12°C° 0 mm 2 mps 735 mmHg 86%
    07:00 +12°C° 0 mm 1 mps 735 mmHg 86%
    08:00 +11°C° 0 mm 0 mps 735 mmHg 85%
    09:00 +13°C° 0 mm 0 mps 735 mmHg 79%
    10:00 +16°C° 0 mm 1 mps 735 mmHg 73%
    11:00 +19°C° 0 mm 1 mps 735 mmHg 67%
    12:00 +20°C° 0 mm 1 mps 735 mmHg 65%
    13:00 +20°C° 0 mm 2 mps 735 mmHg 64%
    14:00 +21°C° 0 mm 2 mps 735 mmHg 62%
    15:00 +21°C° 0 mm 2 mps 735 mmHg 64%
    16:00 +20°C° 0 mm 3 mps 735 mmHg 66%
    17:00 +20°C° 0 mm 3 mps 736 mmHg 68%
    18:00 +19°C° 0 mm 2 mps 736 mmHg 73%
    19:00 +18°C° 0 mm 2 mps 737 mmHg 78%
    20:00 +18°C° 0 mm 1 mps 738 mmHg 83%
    21:00 +17°C° 0 mm 2 mps 738 mmHg 83%
    22:00 +17°C° 0 mm 2 mps 738 mmHg 83%
    23:00 +17°C° 0 mm 2 mps 739 mmHg 83%

    Day after tomorrow, 29 June, Saturday

    Time Temperature Precipitation Wind Pressure Humidity
    00:00 +16°C° 0 mm 2 mps 739 mmHg 82%
    01:00 +15°C° 0 mm 2 mps 739 mmHg 82%
    02:00 +15°C° 0 mm 2 mps 738 mmHg 82%
    03:00 +14°C° 0 mm 2 mps 738 mmHg 81%
    04:00 +14°C° 0 mm 2 mps 739 mmHg 81%
    05:00 +14°C° 0 mm 2 mps 739 mmHg 81%
    06:00 +14°C° 0 mm 2 mps 739 mmHg 82%
    07:00 +14°C° 0 mm 2 mps 739 mmHg 83%
    08:00 +14°C° 0 mm 2 mps 740 mmHg 85%
    09:00 +15°C° 0 mm 2 mps 740 mmHg 80%
    10:00 +16°C° 0 mm 2 mps 740 mmHg 76%
    11:00 +17°C° 0 mm 3 mps 740 mmHg 72%
    12:00 +18°C° 0 mm 3 mps 740 mmHg 66%
    13:00 +19°C° 0 mm 2 mps 739 mmHg 60%
    14:00 +21°C° 0 mm 2 mps 739 mmHg 54%
    15:00 +20°C° 0 mm 2 mps 739 mmHg 55%
    16:00 +20°C° 0 mm 2 mps 739 mmHg 55%
    17:00 +20°C° 0 mm 2 mps 739 mmHg 56%
    18:00 +19°C° 0 mm 2 mps 740 mmHg 60%
    19:00 +17°C° 0 mm 2 mps 741 mmHg 64%
    20:00 +16°C° 0 mm 2 mps 741 mmHg 69%
    21:00 +15°C° 0 mm 2 mps 742 mmHg 71%
    22:00 +15°C° 0 mm 2 mps 743 mmHg 74%
    23:00 +13°C° 0 mm 3 mps 743 mmHg 76%

    30 June, Sunday

    Time Temperature Precipitation Wind Pressure Humidity
    00:00 +13°C° 0 mm 3 mps 743 mmHg 79%
    01:00 +12°C° 0 mm 3 mps 744 mmHg 82%
    02:00 +12°C° 0 mm 3 mps 744 mmHg 85%
    03:00 +11°C° 0 mm 3 mps 744 mmHg 87%
    04:00 +11°C° 0 mm 3 mps 744 mmHg 89%
    05:00 +10°C° 0 mm 3 mps 744 mmHg 91%
    06:00 +11°C° 0 mm 3 mps 745 mmHg 89%
    07:00 +11°C° 0 mm 3 mps 746 mmHg 87%
    08:00 +12°C° 0 mm 2 mps 746 mmHg 85%
    09:00 +12°C° 0 mm 3 mps 747 mmHg 75%
    10:00 +14°C° 0 mm 3 mps 747 mmHg 66%
    11:00 +15°C° 0 mm 4 mps 747 mmHg 57%
    12:00 +17°C° 0 mm 4 mps 747 mmHg 54%
    13:00 +18°C° 0 mm 4 mps 746 mmHg 52%
    14:00 +18°C° 0 mm 4 mps 746 mmHg 50%
    15:00 +17°C° 0 mm 4 mps 746 mmHg 52%
    16:00 +17°C° 0 mm 3 mps 746 mmHg 54%
    17:00 +16°C° 0 mm 3 mps 746 mmHg 56%
    18:00 +14°C° 0 mm 3 mps 747 mmHg 59%
    19:00 +13°C° 0 mm 3 mps 747 mmHg 61%
    20:00 +12°C° 0 mm 3 mps 748 mmHg 64%
    21:00 +11°C° 0 mm 3 mps 748 mmHg 66%
    22:00 +11°C° 0 mm 3 mps 749 mmHg 69%
    23:00 +10°C° 0 mm 3 mps 749 mmHg 71%

    1 July, Monday

    Time Temperature Precipitation Wind Pressure Humidity
    00:00 +10°C° 0 mm 3 mps 750 mmHg 74%
    01:00 +9°C° 0 mm 3 mps 750 mmHg 77%
    02:00 +9°C° 0 mm 3 mps 750 mmHg 80%
    03:00 +9°C° 0 mm 3 mps 750 mmHg 81%
    04:00 +9°C° 0 mm 2 mps 750 mmHg 82%
    05:00 +8°C° 0 mm 2 mps 750 mmHg 83%
    06:00 +9°C° 0 mm 2 mps 750 mmHg 82%
    07:00 +9°C° 0 mm 2 mps 751 mmHg 81%
    08:00 +9°C° 0 mm 2 mps 751 mmHg 80%
    09:00 +11°C° 0 mm 1 mps 751 mmHg 73%
    10:00 +13°C° 0 mm 1 mps 751 mmHg 66%
    11:00 +14°C° 0 mm 1 mps 751 mmHg 59%
    12:00 +15°C° 0 mm 1 mps 750 mmHg 56%
    13:00 +15°C° 0 mm 1 mps 749 mmHg 53%
    14:00 +15°C° 0 mm 0 mps 747 mmHg 49%
    15:00 +16°C° 0 mm 1 mps 747 mmHg 51%
    16:00 +15°C° 0 mm 1 mps 747 mmHg 52%
    17:00 +15°C° 0 mm 1 mps 746 mmHg 53%
    18:00 +14°C° 0 mm 1 mps 746 mmHg 57%
    19:00 +13°C° 0 mm 2 mps 746 mmHg 60%
    20:00 +12°C° 0 mm 2 mps 746 mmHg 63%
    21:00 +10°C° 0 mm 2 mps 745 mmHg 65%
    22:00 +10°C° 0 mm 2 mps 745 mmHg 68%
    23:00 +10°C° 0 mm 3 mps 745 mmHg 70%

    2 July, Tuesday

    Time Temperature Precipitation Wind Pressure Humidity
    00:00 +9°C° 0 mm 3 mps 744 mmHg 72%
    01:00 +9°C° 0 mm 2 mps 744 mmHg 73%
    02:00 +9°C° 0 mm 2 mps 743 mmHg 75%
    03:00 +9°C° 0 mm 2 mps 743 mmHg 76%
    04:00 +8°C° 0 mm 2 mps 743 mmHg 78%
    05:00 +8°C° 0 mm 2 mps 743 mmHg 79%
    06:00 +9°C° 0 mm 1 mps 743 mmHg 78%
    07:00 +10°C° 0 mm 1 mps 743 mmHg 77%
    08:00 +9°C° 0 mm 0 mps 744 mmHg 77%
    09:00 +12°C° 0 mm 1 mps 744 mmHg 70%
    10:00 +13°C° 0 mm 2 mps 744 mmHg 63%
    11:00 +15°C° 0 mm 2 mps 744 mmHg 56%
    12:00 +16°C° 0 mm 2 mps 743 mmHg 53%
    13:00 +17°C° 0 mm 2 mps 743 mmHg 51%
    14:00 +18°C° 0 mm 2 mps 742 mmHg 49%
    15:00 +18°C° 0 mm 2 mps 742 mmHg 51%
    16:00 +18°C° 0 mm 2 mps 741 mmHg 53%
    17:00 +17°C° 0 mm 2 mps 741 mmHg 55%
    18:00 +16°C° 0 mm 2 mps 741 mmHg 58%
    19:00 +15°C° 0 mm 2 mps 741 mmHg 62%
    20:00 +14°C° 0 mm 2 mps 741 mmHg 66%
    21:00 +13°C° 0 mm 2 mps 741 mmHg 68%
    22:00 +13°C° 0 mm 2 mps 741 mmHg 70%
    23:00 +12°C° 0 mm 2 mps 741 mmHg 72%
    Show more